Date String (YYYY-MM-DD hh:mm:ss) UTC,Instrument flags,absolute air pressure of the measurement (hPa),sample flow rate (lpm),inlet stack bypass flow (lpm),air temperature of the measurement (°C),ambient temperature measured by the external sensor (°C),aerosol sample conditioner tube jacket temperature (°C),OPC LED temperature (°C),internal box temperature (°C),relative humidity of the measurement (%),span deviation,mass concentration of particles derived from Lorenz-Mie calculation of OPC scattering (μg/m³),mass concentration of particles derived from Lorenz-Mie calculation of OPC scattering (μg/m³),mass concentration of particles derived from Lorenz-Mie calculation of OPC scattering (μg/m³)
DateTimeUTC,F1_M11,P_M11,Q1_M11,Q2_M11,T1_M11,T2_M11,T3_M11,T4_M11,T5_M11,U1_M11,ZSPAN_M11,X2_M11,X0_M11,X1_M11
2023-07-22 09:00:00,SystemResetWarning,0835.8,5.00,000.00,030.1,028.7,000.0,038.6,031.6,25.1,0000.0,0005.33,0009.19,0004.89
2023-07-22 09:01:00,SystemResetWarning,0835.8,5.00,000.00,030.1,028.7,000.0,038.6,031.6,24.6,0000.0,0005.30,0009.11,0004.86
2023-07-22 09:02:00,SystemResetWarning,0835.8,4.99,000.00,030.1,028.7,000.0,038.6,031.6,24.7,0000.0,0005.28,0009.09,0004.83
2023-07-22 09:03:00,SystemResetWarning,0835.8,5.01,000.00,030.1,028.7,000.0,038.6,031.6,25.0,0000.0,0005.23,0009.10,0004.79
2023-07-22 09:04:00,SystemResetWarning,0835.8,5.00,000.00,030.1,028.6,000.0,038.6,031.6,27.0,0000.0,0005.16,0009.12,0004.75
2023-07-22 09:05:00,SystemResetWarning,0835.8,4.99,000.00,030.1,026.9,000.0,038.5,031.5,27.2,0000.0,0005.13,0009.07,0004.72
2023-07-22 09:06:00,SystemResetWarning,0835.7,5.00,000.00,030.0,025.4,000.0,038.3,031.2,27.5,0000.0,0005.09,0009.05,0004.69
2023-07-22 09:07:00,SystemResetWarning,0835.8,5.00,000.00,029.9,025.1,000.0,038.3,030.9,27.8,0000.0,0005.07,0009.17,0004.65
2023-07-22 09:08:00,SystemResetWarning,0835.7,5.01,000.00,029.7,025.4,000.0,038.3,030.7,27.3,0000.0,0005.04,0008.86,0004.63
2023-07-22 09:09:00,SystemResetWarning,0835.7,5.00,000.00,029.6,025.8,000.0,038.3,030.8,26.8,0000.0,0004.97,0008.68,0004.59
2023-07-22 09:10:00,SystemResetWarning,0835.7,5.00,000.00,029.6,026.3,000.0,038.3,030.8,26.4,0000.0,0004.93,0008.32,0004.56
2023-07-22 09:11:00,SystemResetWarning,0835.8,5.00,000.00,029.6,026.6,000.0,038.2,030.8,25.9,0000.0,0004.91,0007.95,0004.54
2023-07-22 09:12:00,SystemResetWarning,0835.8,5.00,000.00,029.5,026.9,000.0,038.2,030.9,25.6,0000.0,0004.91,0008.04,0004.55
2023-07-22 09:13:00,SystemResetWarning,0835.7,5.00,000.00,029.5,027.2,000.0,038.2,030.9,25.4,0000.0,0004.94,0008.87,0004.57
2023-07-22 09:14:00,SystemResetWarning,0835.6,5.00,000.00,029.5,027.4,000.0,038.2,031.0,24.8,0000.0,0004.95,0008.80,0004.59
2023-07-22 09:15:00,SystemResetWarning,0835.6,5.00,000.00,029.5,027.5,000.0,038.2,031.0,23.4,0000.0,0004.97,0009.02,0004.62
2023-07-22 09:16:00,SystemResetWarning,0835.6,5.01,000.00,029.5,027.7,000.0,038.2,031.0,22.7,0000.0,0004.99,0009.00,0004.65
2023-07-22 09:17:00,SystemResetWarning,0835.6,5.00,000.00,029.6,027.8,000.0,038.2,031.0,22.5,0000.0,0005.06,0009.01,0004.68
2023-07-22 09:18:00,SystemResetWarning,0835.6,4.99,000.00,029.6,027.9,000.0,038.1,031.1,22.2,0000.0,0005.10,0008.93,0004.74
2023-07-22 09:19:00,SystemResetWarning,0835.5,5.00,000.00,029.6,028.0,000.0,038.1,031.1,22.7,0000.0,0005.19,0009.01,0004.82
2023-07-22 09:20:00,SystemResetWarning,0835.5,5.00,000.00,029.6,028.0,000.0,038.1,031.1,23.4,0000.0,0005.31,0009.38,0004.90
2023-07-22 09:21:00,SystemResetWarning,0835.5,5.00,000.00,029.6,028.1,000.0,038.1,031.1,24.0,0000.0,0005.42,0009.51,0004.99
2023-07-22 09:22:00,SystemResetWarning,0835.5,5.00,000.00,029.6,028.1,000.0,038.1,031.2,25.0,0000.0,0005.47,0009.59,0005.04
2023-07-22 09:23:00,SystemResetWarning,0835.5,5.01,000.00,029.6,028.1,000.0,038.1,031.2,24.8,0000.0,0005.51,0009.60,0005.08
2023-07-22 09:24:00,SystemResetWarning,0835.4,5.00,000.00,029.6,028.2,000.0,038.1,031.2,25.0,0000.0,0005.54,0008.81,0005.11
2023-07-22 09:25:00,SystemResetWarning,0835.5,5.00,000.00,029.7,028.2,000.0,038.2,031.2,25.2,0000.0,0005.58,0008.92,0005.11
2023-07-22 09:26:00,SystemResetWarning,0835.6,5.00,000.00,029.7,028.3,000.0,038.2,031.2,24.3,0000.0,0005.61,0008.59,0005.12
2023-07-22 09:27:00,SystemResetWarning,0835.6,5.00,000.00,029.7,028.3,000.0,038.2,031.2,23.9,0000.0,0005.61,0008.54,0005.11
2023-07-22 09:28:00,SystemResetWarning,0835.6,5.01,000.00,029.7,028.3,000.0,038.2,031.2,24.2,0000.0,0005.54,0008.48,0005.06
2023-07-22 09:29:00,SystemResetWarning,0835.6,4.99,000.00,029.7,028.3,000.0,038.2,031.3,25.5,0000.0,0005.44,0008.39,0004.96
2023-07-22 09:30:00,SystemResetWarning,0835.6,4.98,000.00,029.7,028.3,000.0,038.2,031.3,25.6,0000.0,0005.27,0008.20,0004.82
2023-07-22 09:31:00,SystemResetWarning,0835.6,5.00,000.00,029.7,028.3,000.0,038.2,031.3,25.2,0000.0,0005.10,0007.88,0004.68
2023-07-22 09:32:00,SystemResetWarning,0835.8,5.00,000.00,029.8,028.4,000.0,038.2,031.3,25.2,0000.0,0004.92,0007.65,0004.53
2023-07-22 09:33:00,SystemResetWarning,0835.6,5.01,000.00,029.8,028.4,000.0,038.2,031.3,25.3,0000.0,0004.80,0007.52,0004.41
2023-07-22 09:34:00,SystemResetWarning,0835.8,5.01,000.00,029.8,028.4,000.0,038.2,031.3,25.2,0000.0,0004.70,0007.45,0004.30
2023-07-22 09:35:00,SystemResetWarning,0835.6,4.99,000.00,029.8,028.4,000.0,038.2,031.3,25.3,0000.0,0004.59,0007.55,0004.19
2023-07-22 09:36:00,SystemResetWarning,0835.6,5.00,000.00,029.8,028.4,000.0,038.3,031.3,25.5,0000.0,0004.49,0007.53,0004.11
2023-07-22 09:37:00,SystemResetWarning,0835.6,4.99,000.00,029.8,028.4,000.0,038.3,031.3,25.0,0000.0,0004.39,0007.40,0004.03
2023-07-22 09:38:00,SystemResetWarning,0835.6,5.01,000.00,029.8,028.4,000.0,038.3,031.4,25.6,0000.0,0004.34,0007.47,0003.97
2023-07-22 09:39:00,SystemResetWarning,0835.6,5.00,000.00,029.8,028.4,000.0,038.3,031.4,23.4,0000.0,0004.31,0007.86,0003.93
2023-07-22 09:40:00,SystemResetWarning,0835.6,5.01,000.00,029.8,028.5,000.0,038.3,031.4,23.5,0000.0,0004.33,0008.19,0003.93
2023-07-22 09:41:00,SystemResetWarning,0835.6,5.00,000.00,029.8,028.5,000.0,038.3,031.4,23.1,0000.0,0004.36,0008.21,0003.95
2023-07-22 09:42:00,SystemResetWarning,0835.6,5.00,000.00,029.9,028.5,000.0,038.3,031.4,22.7,0000.0,0004.38,0008.27,0003.96
2023-07-22 09:43:00,SystemResetWarning,0835.6,5.00,000.00,029.9,028.5,000.0,038.3,031.4,22.7,0000.0,0004.43,0008.45,0003.97
2023-07-22 09:44:00,SystemResetWarning,0835.6,5.00,000.00,029.9,028.5,000.0,038.3,031.4,22.4,0000.0,0004.46,0008.50,0003.97
2023-07-22 09:45:00,SystemResetWarning,0835.7,5.00,000.00,029.9,028.5,000.0,038.4,031.4,22.5,0000.0,0004.47,0008.56,0003.98
2023-07-22 09:46:00,SystemResetWarning,0835.7,5.00,000.00,029.9,028.5,000.0,038.4,031.4,22.4,0000.0,0004.49,0008.53,0004.00
2023-07-22 09:47:00,SystemResetWarning,0835.7,4.99,000.00,029.9,028.5,000.0,038.4,031.4,22.4,0000.0,0004.49,0008.34,0004.01
2023-07-22 09:48:00,SystemResetWarning,0835.7,4.99,000.00,029.9,028.5,000.0,038.4,031.4,22.4,0000.0,0004.47,0008.60,0003.99
2023-07-22 09:49:00,SystemResetWarning,0835.7,5.00,000.00,029.9,028.5,000.0,038.4,031.5,22.4,0000.0,0004.44,0008.65,0003.99
2023-07-22 09:50:00,SystemResetWarning,0835.7,5.00,000.00,029.9,028.5,000.0,038.4,031.5,22.3,0000.0,0004.41,0008.38,0003.97
2023-07-22 09:51:00,SystemResetWarning,0835.7,5.00,000.00,030.0,028.6,000.0,038.4,031.5,22.2,0000.0,0004.38,0007.80,0003.98
2023-07-22 09:52:00,SystemResetWarning,0835.7,5.01,000.00,030.0,028.6,000.0,038.4,031.5,22.0,0000.0,0004.35,0007.68,0003.97
2023-07-22 09:53:00,SystemResetWarning,0835.7,5.01,000.00,030.0,028.6,000.0,038.4,031.5,22.0,0000.0,0004.34,0007.66,0003.97
2023-07-22 09:54:00,SystemResetWarning,0835.7,4.98,000.00,030.0,028.6,000.0,038.5,031.5,21.9,0000.0,0004.32,0007.53,0003.97
2023-07-22 09:55:00,SystemResetWarning,0835.7,5.00,000.00,030.0,028.6,000.0,038.5,031.5,21.7,0000.0,0004.30,0007.59,0003.96
2023-07-22 09:56:00,SystemResetWarning,0835.7,5.01,000.00,030.0,028.6,000.0,038.5,031.5,21.5,0000.0,0004.27,0007.74,0003.96
2023-07-22 09:57:00,SystemResetWarning,0835.7,5.01,000.00,030.0,028.6,000.0,038.5,031.5,21.6,0000.0,0004.25,0007.61,0003.96
2023-07-22 09:58:00,SystemResetWarning,0835.8,4.99,000.00,030.0,028.6,000.0,038.5,031.5,21.7,0000.0,0004.24,0007.65,0003.95
2023-07-22 09:59:00,SystemResetWarning,0835.6,5.00,000.00,030.0,028.7,000.0,038.5,031.5,21.7,0000.0,0004.22,0007.40,0003.94
